www.pogodaiklimat.ru
Время
и дата
08:24 19.05
08:37 19.05
08:54 19.05
09:05 19.05
09:54 19.05
10:03 19.05
10:54 19.05
11:02 19.05
11:10 19.05
11:54 19.05
12:54 19.05
13:54 19.05
14:54 19.05
15:54 19.05
16:54 19.05
17:54 19.05
18:54 19.05
19:54 19.05
20:54 19.05
21:54 19.05
22:54 19.05
23:54 19.05
00:54 20.05
01:54 20.05
02:54 20.05
03:54 20.05
04:54 20.05
05:54 20.05
06:54 20.05
07:54 20.05
08:54 20.05
09:54 20.05
10:54 20.05
11:54 20.05
12:54 20.05
13:54 20.05
14:54 20.05
15:54 20.05
16:54 20.05
17:54 20.05
18:54 20.05
19:54 20.05
20:54 20.05
21:54 20.05
22:54 20.05
23:54 20.05
00:54 21.05
01:54 21.05
Ветер
(напр.,м/с)
Видим. Явления Облачность Т
(С)
Тd
(С)
f
(%)
Тe
(С)
Тes
(С)
Комфортность P
(гПа)
Po
(гПа)
Тmin
(С)
Tmax
(С)
R
(мм)
R24
(мм)
S
(см)
штиль 0 8 км мгла 10/10 240 м +17.8 +15.0 84 +18 +18 983.0
штиль 0 10 км мгла 10/10 240 м +18.3 +15.0 81 +19 +19 983.0
С 2 10 км мгла 10/10 330 м +18.9 +15.6 81 +21 +21 комфорт 1016.3 983.0
СЗ 2 11 км 10/10 330 м +19.4 +15.6 79 +22 +22 комфорт 982.7
С 2 13 км 10/10 480 м +20.6 +15.0 70 +24 +24 комфорт 1016.0 982.7
штиль 0 13 км 10/10 480 м +20.6 +15.0 70 +23 +23 комфорт 982.7
нст 2 13 км 8/8 750 м +21.7 +15.0 66 +25 +28 комфорт 1015.8 982.7
З 2 13 км 8/8 750 м +21.1 +15.0 68 +24 +28 комфорт 982.7
нст 2 14 км 5/5 750 м +22.8 +15.6 64 +27 +36 душно 982.7
штиль 0 14 км 8/8 1080 м +22.2 +14.4 61 +25 +30 комфорт 1015.3 982.0
З 3 14 км 8/8 960 м +23.3 +14.4 57 +27 +30 душно 1014.6 981.4 +16.7 +24.4
СВ 2 14 км 10/10 1110 м +23.9 +14.4 55 +26 +26 жарко 1014.4 981.4
штиль 0 16 км 10/10 1950 м +23.9 +13.9 54 +26 +26 жарко 1013.9 980.7
В 2 16 км 2/2 1290 м +25.0 +13.9 50 +27 +37 жарко 1013.7 980.7
штиль 0 14 км 5/0 2100 m
[Ac]
+25.6 +14.4 50 +28 +35 жарко 1013.7 980.7
штиль 0 14 км 8/0 2250 m
[Ac]
+25.6 +14.4 50 +28 +30 жарко 1013.7 980.7
СЗ 2 14 км ясно +24.4 +13.9 52 +27 +28 жарко 1013.8 980.7 +23.3 +26.1
В 2 16 км ясно +19.4 +15.0 76 +22 +22 комфорт 1014.5 981.4
В 3 16 км ясно +19.4 +15.0 76 +21 +21 комфорт 1015.0 981.7
В 2 16 км ясно +18.3 +13.9 76 +19 +19 1015.6 982.4
В 2 14 км ясно +17.8 +14.4 80 +18 +18 1015.5 982.4
штиль 0 16 км ясно +17.2 +13.9 81 +17 +17 1015.6 982.4
СВ 2 16 км ясно +16.7 +13.3 80 +17 +17 1015.6 982.4 +16.7 +23.9
штиль 0 16 км ясно +15.0 +12.8 87 +15 +15 1015.9 982.7
В 2 16 км ясно +15.0 +12.8 87 +15 +15 1015.5 982.4
В 2 16 км ясно +14.4 +12.2 87 +14 +14 1015.2 982.0
ЮВ 2 14 км ясно +13.9 +12.2 89 +13 +13 1015.9 982.7
штиль 0 14 км ясно +15.0 +12.8 87 +15 +15 1016.4 983.4
штиль 0 14 км ясно +17.2 +13.9 81 +17 +19 1017.1 984.0 +13.9 +17.8
З 2 13 км ясно +19.4 +14.4 73 +22 +25 комфорт 1017.1 983.7
Ю 2 13 км ясно +20.6 +15.0 70 +24 +31 комфорт 1016.9 983.7
нст 2 13 км ясно +22.8 +16.1 66 +27 +39 душно 1016.6 983.4
14 км ясно +25.0 +15.6 56 +28 +49 жарко 1016.1 983.0
штиль 0 16 км ясно +26.7 +15.6 51 +30 +55 опасность
солнечного
удара
1015.4 982.4
штиль 0 16 км ясно +27.8 +11.7 37 +29 +55 опасность
солнечного
удара
1015.1 982.0 +17.8 +27.8
ЮЗ 2 16 км ясно +27.2 +11.1 37 +28 +47 жарко 1014.8 981.7
СЗ 3 16 км ясно +28.9 +12.8 37 +30 +43 жарко 1014.3 981.4
С 2 16 км ясно +29.4 +12.8 36 +31 +43 жарко 1014.0 981.1
С 2 16 км ясно +28.9 +12.2 36 +30 +38 жарко 1013.4 980.4
З 2 16 км ясно +27.8 +13.3 41 +30 +34 жарко 1013.4 980.4
штиль 0 14 км ясно +25.6 +15.0 52 +28 +30 жарко 1013.7 980.7 +25.0 +29.4
Ю 3 16 км ясно +23.9 +15.6 60 +27 +27 жарко 1014.3 981.4
З 2 14 км ясно +22.8 +15.6 64 +27 +27 душно 1014.7 981.7
штиль 0 14 км ясно +20.0 +15.6 76 +22 +22 комфорт 1014.7 981.7
штиль 0 14 км ясно +18.3 +15.6 84 +19 +19 1014.5 981.4
штиль 0 14 км ясно +17.2 +15.0 87 +17 +17 1014.2 981.4
штиль 0 14 км ясно +17.2 +14.4 84 +17 +17 1014.1 981.1 +16.7 +25.0
штиль 0 14 км ясно +16.7 +14.4 86 +17 +17 1014.1 981.1
Местоположение метеостанции Wilkes-Barre / Scranton International Airport: широта 41.3336 долгота -75.7269 высота над уровнем моря 284 м.
В архиве по умолчанию представлена погода в Уилкс-Барре за последние 1-2 суток. Обновление информации о фактической погоде в базе происходит ежечасно! Архивные данные за месяц целиком и за предыдущие месяцы Вы можете получить, выбрав интересующий диапазон дат из раскрывающегося списка и нажав кнопку "Ввод!".
Внимание! Архив погоды МЕТАР в базе сайта по станциям, не включенным в климатический монитор, хранится не более 60 дней. Нет смысла пытаться выбрать более раннюю дату.
*Определитесь, кто Вы:
Внимание! Время в таблицах - местное (без учета летнего времени). Для получения всемирного времени необходимо вычесть поправку, которая равна -5 ч.
Смотрите также архив погоды в соседних городах и на ближайших метеорологических станциях:
Партнеры нашего сайта:      
Пояснения к столбцам:
  • Ветер - указаны скорость ветра в м/с - средняя за 10 мин, порывы в срок и между сроками (в фигурных скобках) и направление, откуда дует ветер: С - северный,
  • СВ - северо-восточный, В - восточный, ЮВ - юго-восточный, Ю - южный, ЮЗ - юго-западный, З - западный, СЗ - северо-западный.
  • Видимость - горизонтальная дальность видимости в метрах или километрах. При видимости от 1 до 10 км при отсутствии осадков обычно наблюдается дымка, при ухудшении видимости до 1 км и менее - туман. В сухую погоду видимость может ухудшаться дымом, пылью или мглою.
  • Явления - указаны атмосферные явления, наблюдавшиеся в срок или в последний час перед сроком; фигурными скобками обозначены явления, наблюдавшиеся между сроками (за 1-3 часа до срока); квадратными скобками обозначены град или гололедные отложения с указанием их диаметра в мм.
  • Облачность - указаны через наклонную черту общая и нижняя облачность в баллах и высота нижней границы облаков в метрах; квадратными скобками обозначены формы облаков: Ci - перистые, Cs - перисто-слоистые, Cc - перисто-кучевые, Ac - высококучевые, As - высокослоистые, Sc - слоисто-кучевые, Ns - слоисто-дождевые, Cu - кучевые, Cb - кучево-дождевые. Подробнее классификацию облаков см. в Атласе облаков (PDF).
  • T - Температура воздуха - температура, измеренная на высоте 2 м над землей.
  • Td - Температура точки росы - температура, при понижении до которой содержащийся в воздухе водяной пар достигнет насыщения.
  • f - Относительная влажность воздуха - влажноcть воздуха, измеренная на высоте 2 м над землей.
  • Te - Эффективная температура - температура, которую ощущает одетый по сезону человек в тени. Характеристика душности погоды. При расчете учитывается влияние влажности воздуха и скорости ветра на теплоощущения человека.
  • Tes - Эффективная температура на солнце - температура, которую ощущает человек, с поправкой на солнечный нагрев. Характеристика знойности погоды. Зависит от высоты солнца над горизонтом, облачности и скорости ветра. Ночью, в пасмурную погоду, а также при ветре 12 м/с и более поправка равна нулю.
  • P - Атмосферное давление - приведенное к уровню моря атмосферное давление.
  • Po - Атмосферное давление - измеренное на уровне метеостанции атмосферное давление.
  • Tmin - Минимальная температура - минимум температуры воздуха на высоте 2 м над землей.
  • Tmax - Максимальная температура - максимум температуры воздуха на высоте 2 м над землей.
  • R - Количество осадков - Количество выпавших осадков за период времени, мм. При наведении курсора мыши на число - период времени, за который выпало указанное количество осадков.
  • R24 - Количество осадков - Количество выпавших осадков за 24 часа, мм.
  • S - Снежный покров - Высота снежного покрова, см. При наведении курсора мыши на число - состояние снежного покрова и степень покрытия местности в баллах.